Tracking 23441 objects as of 15-Jun-2021
HD Live streaming from Space Station
objects crossing your sky now

S-NET C

Track S-NET C now!
10-day predictions


NORAD ID: 43189
Int'l Code: 2018-014K
Perigee: 574.3 km
Apogee: 591.9 km
Inclination: 97.7 °
Period: 96.2 minutes
Semi major axis: 6954 km
RCS: Unknown
Launch date: February 1, 2018
Source: Germany (GER)
Launch site: VOSTOCHNY COSMODROME (VOSTO)
aabbcc
Your satellite tracking list
Your tracking list is empty




NASA's NSSDC Master Catalog

Two Line Element Set (TLE):
1 43189U 18014K   21166.28474784  .00000677  00000-0  63719-4 0  9999
2 43189  97.6774  73.8701 0012633  89.8820 270.3850 14.97061351182523
Source of the keplerian elements: AMSAT